ONEWEB-0166

Last updated on Sun Apr 25 2021 00:02:03 GMT+0000 (Coordinated Universal Time)

1 48065U 21025Z 21114.58336806 -.01050949 00000-0 -37478-1 0 9991 2 48065 87.4259 339.3075 0012016 146.0940 331.1693 15.31574145 1793

Satellite not in orbit

ONEWEB-0166